Weather History for EGQK - February, 2014

Change the Weather History Date:

Friday, February 21, 2014

  Actual Average Record
Temperature  
Mean Temperature 43 °F -  
Max Temperature 48 °F 46 °F 57 °F (2012)
Min Temperature 38 °F 34 °F 24 °F (2013)
Degree Days  
Heating Degree Days 22    
Moisture  
Dew Point 34 °F    
Average Humidity 67    
Maximum Humidity 81    
Minimum Humidity 50    
Precipitation  
Precipitation 0.00 in 0.06 in - ()
Sea Level Pressure  
Sea Level Pressure 29.00 in    
Wind  
Wind Speed 13 mph ()    
Max Wind Speed 23 mph    
Max Gust Speed 37 mph    
Visibility 6.2 miles    
Events Rain    
Averages and records for this station are not official NWS values.
T = Trace of Precipitation, MM = Missing Value Source: Averaged Metar Reports

Daily Weather History Graph

Daily Weather History Graph

Search for Another Location

Airport or City:

Trip Planner

Search our weather history database for the weather conditions in past years. The results will help you decide how hot, cold, wet, or windy it might be!

Date:

Astronomy

Feb. 21, 2014 Rise Set
Actual Time 7:29 AM GMT 5:27 PM GMT
Civil Twilight 6:49 AM GMT 6:06 PM GMT
Nautical Twilight 6:04 AM GMT 6:52 PM GMT
Astronomical Twilight 5:19 AM GMT 7:37 PM GMT
Moon 12:23 AM GMT (2/21) 9:22 AM GMT (2/21)
Length of Visible Light 11h 17m
Length of Day
9h 57m
Waning Gibbous, 63% of the Moon is Illuminated
Feb 21
Waning Gibbous
Feb 22
Last Quarter
Mar 1
New
Mar 8
First Quarter
Mar 16
Full

Hourly Weather History & Observations

Time (GMT) Temp. Windchill Dew Point Humidity Pressure Visibility Wind Dir Wind Speed Gust Speed Precip Events Conditions
12:00 AM 40 °F - 32 °F 64% 29.07 in 31 mi SW 15.0 mph - -   Scattered Clouds
12:50 AM 41.0 °F 33.1 °F 32.0 °F 70% 29.06 in 6.2 mi SSW 15.0 mph - N/A   Mostly Cloudy
1:00 AM 40 °F - 32 °F 65% 29.07 in 28 mi SSW 15.0 mph - -   Mostly Cloudy
1:50 AM 39.2 °F 32.0 °F 32.0 °F 75% 29.03 in 6.2 mi SSW 11.5 mph - N/A   Mostly Cloudy
2:00 AM 39 °F - 32 °F 69% 29.06 in 31 mi SSW 11.5 mph - -   Scattered Clouds
2:50 AM 39.2 °F 32.0 °F 33.8 °F 81% 29.03 in 6.2 mi SW 11.5 mph - N/A   Scattered Clouds
3:00 AM 40 °F - 33 °F 67% 29.06 in 34 mi SW 11.5 mph - -   Mostly Cloudy
3:50 AM 39.2 °F 32.0 °F 33.8 °F 81% 29.03 in 6.2 mi WSW 11.5 mph - N/A   Partly Cloudy
4:50 AM 39.2 °F 33.6 °F 33.8 °F 81% 29.06 in 6.2 mi SW 8.1 mph - N/A   Unknown
5:00 AM 39 °F - 33 °F 71% 29.06 in 31 mi SW 8.1 mph - -  
5:50 AM 41.0 °F 35.2 °F 32.0 °F 70% 29.03 in 6.2 mi South 9.2 mph - N/A   Mostly Cloudy
6:00 AM 40 °F - 32 °F 63% 29.05 in 31 mi South 9.2 mph - -  
6:50 AM 39.2 °F 30.8 °F 32.0 °F 75% 29.03 in 6.2 mi SSW 15.0 mph - N/A   Overcast
7:00 AM 39 °F - 31 °F 65% 29.04 in 31 mi SSW 15.0 mph - -   Overcast
7:50 AM 39.2 °F 29.8 °F 32.0 °F 75% 29.00 in 6.2 mi SSW 18.4 mph - N/A   Mostly Cloudy
8:00 AM 40 °F - 32 °F 63% 29.02 in 25 mi SSW 18.4 mph - -   Mostly Cloudy
8:50 AM 41.0 °F 33.1 °F 32.0 °F 70% 29.00 in 6.2 mi South 15.0 mph - N/A   Partly Cloudy
9:00 AM 41 °F - 31 °F 59% 29.03 in 28 mi South 15.0 mph - -   Scattered Clouds
9:50 AM 41.0 °F 35.2 °F 32.0 °F 70% 29.00 in 6.2 mi South 9.2 mph - N/A   Partly Cloudy
10:00 AM 42 °F - 32 °F 58% 29.01 in 28 mi South 9.2 mph - -   Scattered Clouds
10:50 AM 44.6 °F 37.2 °F 33.8 °F 66% 28.97 in 6.2 mi South 17.3 mph 28.8 mph N/A   Unknown
11:00 AM 45 °F - 34 °F 55% 28.99 in 47 mi South 17.3 mph - -  
11:50 AM 44.6 °F 37.2 °F 33.8 °F 66% 28.97 in 6.2 mi SSW 17.3 mph 33.4 mph N/A   Scattered Clouds
12:00 PM 45 °F - 34 °F 56% 28.98 in 44 mi SSW 17.3 mph - -   Partly Cloudy
12:50 PM 46.4 °F 38.3 °F 35.6 °F 66% 28.94 in 6.2 mi SSW 23.0 mph 36.8 mph N/A   Partly Cloudy
1:00 PM 47 °F - 35 °F 53% 28.95 in 47 mi SSW 23.0 mph - -   Scattered Clouds
1:50 PM 48.2 °F - 35.6 °F 62% 28.94 in 6.2 mi SSW 20.7 mph 36.8 mph N/A   Scattered Clouds
2:00 PM 48 °F - 36 °F 51% 28.95 in 40 mi SSW 20.7 mph - -   Mostly Cloudy
2:50 PM 46.4 °F 39.2 °F 33.8 °F 62% 28.91 in 6.2 mi SSW 18.4 mph 33.4 mph N/A   Mostly Cloudy
3:00 PM 47 °F - 34 °F 50% 28.93 in 44 mi SSW 18.4 mph - -   Mostly Cloudy
3:50 PM 46.4 °F 38.5 °F 33.8 °F 62% 28.94 in 6.2 mi SW 21.9 mph 36.8 mph N/A   Mostly Cloudy
4:00 PM 47 °F - 34 °F 50% 28.94 in 40 mi SW 21.9 mph - -   Mostly Cloudy
4:50 PM 46.4 °F 39.2 °F 35.6 °F 66% 28.94 in 6.2 mi SSW 18.4 mph - N/A   Mostly Cloudy
5:00 PM 46 °F - 35 °F 54% 28.95 in 34 mi SSW 18.4 mph - -   Mostly Cloudy
5:50 PM 44.6 °F 41.4 °F 33.8 °F 66% 28.94 in 6.2 mi SSW 5.8 mph - N/A   Scattered Clouds
6:00 PM 44 °F - 34 °F 58% 28.96 in 40 mi SSW 5.8 mph - -   Partly Cloudy
6:50 PM 42.8 °F 34.5 °F 33.8 °F 70% 28.97 in 6.2 mi SW 18.4 mph - N/A   Mostly Cloudy
7:00 PM 44 °F - 34 °F 57% 28.98 in 34 mi SW 18.4 mph - -   Scattered Clouds
7:50 PM 42.8 °F 36.2 °F 35.6 °F 76% 28.97 in 6.2 mi SW 12.7 mph - N/A Rain Light Rain Showers
8:00 PM 42 °F - 36 °F 72% 28.98 in 28 mi SW 12.7 mph - - Rain Light Rain Showers
8:50 PM 41.0 °F 32.8 °F 33.8 °F 76% 28.97 in 6.2 mi SW 16.1 mph - N/A   Partly Cloudy
9:00 PM 41 °F - 35 °F 70% 28.99 in 34 mi SW 16.1 mph - - Rain Rain
9:50 PM 41.0 °F 34.7 °F 33.8 °F 76% 29.00 in 6.2 mi SW 10.4 mph - N/A   Scattered Clouds
10:00 PM 41 °F - 34 °F 68% 29.02 in 28 mi SW 10.4 mph - -   Partly Cloudy
10:50 PM 41.0 °F 34.7 °F 33.8 °F 76% 29.03 in 6.2 mi SW 10.4 mph - N/A   Mostly Cloudy
11:00 PM 41 °F - 35 °F 70% 29.03 in 31 mi SW 10.4 mph - -   Mostly Cloudy
11:50 PM 41.0 °F 34.7 °F 35.6 °F 81% 29.03 in 6.2 mi WSW 10.4 mph - N/A Rain Light Rain Showers